This is the latest recevied weather packets stored in our database for station/object IK6IHU-3. If no packets are shown the sender has not sent any weather packets the latest 10 day(s).
| Time | Temp. | Humidity | Pressure | Rain* | Wind** | Luminosity | Snow |
|---|---|---|---|---|---|---|---|
| 1777788438 | 15.56° C | 51% | 1019.2 hPa | 0 mm | - | 0 W/m² | - |
| 1777788378 | 15.56° C | 50% | 1019.1 hPa | 0 mm | - | 0 W/m² | - |
| 1777788318 | 15.56° C | 50% | 1019.1 hPa | 0 mm | - | 0 W/m² | - |
| 1777788258 | 15.56° C | 51% | 1019.2 hPa | 0 mm | - | 0 W/m² | - |
| 1777788198 | 15.56° C | 48% | 1019.2 hPa | 0 mm | - | 0 W/m² | - |
| 1777788138 | 15° C | 46% | 1019.4 hPa | 0 mm | - | 0 W/m² | - |
| 1777788078 | 15.56° C | 49% | 1019.1 hPa | 0 mm | - | 0 W/m² | - |
| 1777788018 | 15° C | 45% | 1019.2 hPa | 0 mm | - | 0 W/m² | - |
| 1777787958 | 15° C | 45% | 1019.3 hPa | 0 mm | - | 0 W/m² | - |
| 1777787898 | 15° C | 46% | 1019.1 hPa | 0 mm | - | 0 W/m² | - |
| 1777787837 | 15° C | 44% | 1019.2 hPa | 0 mm | - | 0 W/m² | - |
| 1777787778 | 15° C | 49% | 1019.3 hPa | 0 mm | - | 0 W/m² | - |
| 1777787718 | 15° C | 47% | 1019 hPa | 0 mm | - | 0 W/m² | - |
| 1777787658 | 15° C | 49% | 1019.1 hPa | 0 mm | - | 0 W/m² | - |
| 1777787597 | 14.44° C | 47% | 1019 hPa | 0 mm | - | 0 W/m² | - |
| 1777787537 | 14.44° C | 48% | 1019 hPa | 0 mm | - | 0 W/m² | - |
| 1777787478 | 14.44° C | 52% | 1019.2 hPa | 0 mm | - | 0 W/m² | - |
| 1777787418 | 14.44° C | 50% | 1019.1 hPa | 0 mm | - | 0 W/m² | - |
| 1777787357 | 15° C | 52% | 1019.1 hPa | 0 mm | - | 0 W/m² | - |
| 1777787298 | 14.44° C | 50% | 1019.1 hPa | 0 mm | - | 0 W/m² | - |
| 1777787238 | 15° C | 54% | 1019 hPa | 0 mm | - | 0 W/m² | - |
| 1777787178 | 14.44° C | 50% | 1019.2 hPa | 0 mm | - | 0 W/m² | - |
| 1777787118 | 14.44° C | 50% | 1019 hPa | 0 mm | - | 0 W/m² | - |
| 1777787058 | 15° C | 50% | 1018.9 hPa | 0 mm | - | 0 W/m² | - |
| 1777786998 | 14.44° C | 47% | 1019.2 hPa | 0 mm | - | 0 W/m² | - |
* Rain latest hour (hover to see other rain measurements)
** Current wind speed in m/s (hover to see current wind gust speed)